This demonstration page uses our WeatherBlox Daily Observations layout. Learn more.

Left ArrowRight Arrow

Hourly Observations for August 15, 2022

Temp ( °F °C ) Dew Point ( °F °C ) Humidity (%) Winds ( mph kmh ) Pressure ( in mb ) Visibility ( mi km ) Precip ( " mm )
12:53 am 00:53 Clear 75 23.9 69 20.6 82 82 Calm 29.95 1014 10 16 0.00 0.00
1:53 am 01:53 Mostly Clear 75 23.9 70 21.1 84 84 Calm 29.94 1014 10 16 0.00 0.00
2:53 am 02:53 Clear 75 23.9 69 20.6 82 82 SW 3 6 29.93 1014 10 16 0.00 0.00
3:53 am 03:53 Clear 74 23.3 69 20.6 85 85 S 3 6 29.92 1013 10 16 0.00 0.00
4:53 am 04:53 Clear 73 22.8 68 20 84 84 SSW 5 7 29.91 1013 10 16 0.00 0.00
5:53 am 05:53 Partly Cloudy 73 22.8 68 20 84 84 SSW 5 7 29.91 1013 10 16 0.00 0.00
6:53 am 06:53 Clear 72 22.2 68 20 87 87 SSW 5 7 29.91 1013 10 16 0.00 0.00
7:53 am 07:53 Sunny 72 22.2 67 19.4 84 84 SSW 3 6 29.92 1013 10 16 0.00 0.00
8:53 am 08:53 Sunny 75 23.9 67 19.4 76 76 SSW 5 7 29.93 1014 10 16 0.00 0.00
9:53 am 09:53 Sunny 76 24.4 68 20 77 77 SSW 6 9 29.94 1014 10 16 0.00 0.00
10:53 am 10:53 Sunny 79 26.1 69 20.6 72 72 SSW 6 9 29.93 1014 10 16 0.00 0.00
11:53 am 11:53 Sunny 86 30 69 20.6 57 57 W 9 15 29.91 1013 10 16 0.00 0.00
12:53 pm 12:53 Mostly Sunny 87 30.6 69 20.6 55 55 VRB 5 7 29.90 1013 10 16 0.00 0.00
1:53 pm 13:53 Partly Cloudy 89 31.7 70 21.1 54 54 SW 9 15 29.89 1012 10 16 0.00 0.00
2:53 pm 14:53 Mostly Sunny 89 31.7 70 21.1 54 54 W 6 9 29.88 1012 10 16 0.00 0.00
3:53 pm 15:53 Partly Cloudy 90 32.2 69 20.6 50 50 W 6 9 29.85 1011 10 16 0.00 0.00
4:53 pm 16:53 Partly Cloudy 91 32.8 70 21.1 50 50 WNW 12 19 29.83 1010 10 16 0.00 0.00
5:53 pm 17:53 Mostly Sunny 91 32.8 70 21.1 50 50 W 15 24 29.82 1010 10 16 0.00 0.00
6:53 pm 18:53 Mostly Sunny 89 31.7 71 21.7 56 56 WNW 7 11 29.81 1010 10 16 0.00 0.00
7:53 pm 19:53 Mostly Sunny 86 30 70 21.1 59 59 WSW 3 6 29.82 1010 10 16 0.00 0.00
8:01 pm 20:01 Partly Cloudy with Nearby Thunderstorms 85 29.4 72 22.2 65 65 WNW 12 19 29.82 1010 10 16 0.00 0.00
8:12 pm 20:12 Mostly Cloudy with Thunderstorms 77 25 67 19.4 71 71 WNW 23 37 29.85 1011 10 16 0.00 0.00
8:19 pm 20:19 Mostly Cloudy with Strong Thunderstorms 73 22.8 69 20.6 87 87 WNW 12 19 29.87 1011 1 1 0.23 5.84
8:30 pm 20:30 Cloudy with Thunderstorms 73 22.8 68 20 84 84 VRB 3 6 29.86 1011 2 3 0.29 7.37
8:39 pm 20:39 Cloudy with Thunderstorms 74 23.3 69 20.6 85 85 VRB 5 7 29.87 1011 7 11 0.30 7.62
8:53 pm 20:53 Mostly Cloudy with Thunderstorms 74 23.3 70 21.1 87 87 Calm 29.86 1011 10 16 0.30 7.62
9:07 pm 21:07 Partly Cloudy with Nearby Thunderstorms 74 23.3 70 21.1 87 87 SW 3 6 29.85 1011 10 16 0.00 0.00
9:21 pm 21:21 Mostly Clear 74 23.3 71 21.7 91 91 Calm 29.87 1011 10 16 0.00 0.00
9:53 pm 21:53 Mostly Clear 73 22.8 71 21.7 94 94 S 3 6 29.88 1012 10 16 0.00 0.00
10:53 pm 22:53 Mostly Clear 73 22.8 72 22.2 96 96 Calm 29.89 1012 10 16 0.00 0.00
11:53 pm 23:53 Clear 73 22.8 71 21.7 94 94 Calm 29.88 1012 10 16 0.00 0.00

Powered by AerisWeather